Thief River Falls, MN

6:25 PM CST on February 06, 2016 (GMT -0600)
Thief River Falls Regional

Weather History for KTVF - November, 2013

Change the Weather History Date:

Sunday, November 17, 2013

  Actual Average (KGFK) Record (KGFK)
Temperature  
Mean Temperature 29 °F 25 °F  
Max Temperature 37 °F 34 °F 64 °F (1953)
Min Temperature 21 °F 16 °F -5 °F (1989)
Degree Days  
Heating Degree Days 36 40  
Month to date heating degree days 595  
Since 1 July heating degree days 1626  
Cooling Degree Days 0 0  
Month to date cooling degree days 0  
Year to date cooling degree days 379  
Moisture  
Dew Point 25 °F    
Average Humidity 81    
Maximum Humidity 87    
Minimum Humidity 74    
Precipitation  
Precipitation 0.10 in 0.04 in 1.02 in (1958)
Month to date precipitation 0.64  
Year to date precipitation 19.89  
Snow  
Snow 0.00 in 0.30 in 8.00 in (1958)
Month to date snowfall 3.6  
Since 1 July snowfall 5.1  
Since 1 September snowfall 5.1  
Snow Depth -    
Sea Level Pressure  
Sea Level Pressure 29.55 in    
Wind  
Wind Speed 14 mph (NW)    
Max Wind Speed 26 mph    
Max Gust Speed 37 mph    
Visibility 9 miles    
Events      
T = Trace of Precipitation, MM = Missing Value Source: NWS Daily Summary

Daily Weather History Graph

Daily Weather History Graph

Search for Another Location

Airport or City:

Trip Planner

Search our weather history database for the weather conditions in past years. The results will help you decide how hot, cold, wet, or windy it might be!

Date:

Astronomy

Nov. 17, 2013 Rise Set
Actual Time 7:34 AM CST 4:44 PM CST
Civil Twilight 7:00 AM CST 5:18 PM CST
Nautical Twilight 6:22 AM CST 5:56 PM CST
Astronomical Twilight 5:45 AM CST 6:33 PM CST
Moon 5:02 PM CST (11/17) 7:28 AM CST (11/17)
Length of Visible Light 10h 17m
Length of Day
9h 09m
Full, 100% of the Moon is Illuminated
Nov 17
Full
Nov 25
Last Quarter
Dec 2
New
Dec 9
First Quarter
Dec 17
Full

Hourly Weather History & Observations

Time (CST) Temp. Windchill Dew Point Humidity Pressure Visibility Wind Dir Wind Speed Gust Speed Precip Events Conditions
12:15 AM 37.4 °F 31.4 °F 33.8 °F 87% 29.33 in 5.0 mi North 8.1 mph - 0.01 in   Overcast
12:35 AM 37.4 °F 30.8 °F 33.8 °F 87% 29.34 in 4.0 mi NNW 9.2 mph - 0.03 in   Overcast
12:55 AM 37.4 °F 31.4 °F 33.8 °F 87% 29.34 in 5.0 mi North 8.1 mph - 0.04 in   Overcast
1:15 AM 37.4 °F 31.4 °F 33.8 °F 87% 29.34 in 5.0 mi North 8.1 mph - 0.01 in   Overcast
1:35 AM 37.4 °F 30.8 °F 33.8 °F 87% 29.33 in 5.0 mi North 9.2 mph - 0.01 in   Overcast
1:55 AM 37.4 °F 30.3 °F 33.8 °F 87% 29.33 in 5.0 mi North 10.4 mph - 0.01 in   Overcast
2:15 AM 37.4 °F 30.3 °F 33.8 °F 87% 29.34 in 5.0 mi NNW 10.4 mph - N/A   Overcast
2:35 AM 37.4 °F 30.3 °F 32.0 °F 81% 29.34 in 6.0 mi NNW 10.4 mph - 0.01 in   Overcast
2:55 AM 37.4 °F 29.3 °F 32.0 °F 81% 29.34 in 8.0 mi NNW 12.7 mph - 0.02 in   Overcast
3:15 AM 35.6 °F 27.1 °F 32.0 °F 87% 29.34 in 7.0 mi NNW 12.7 mph - 0.01 in   Overcast
3:35 AM 35.6 °F 27.5 °F 32.0 °F 87% 29.34 in 6.0 mi NNW 11.5 mph - 0.01 in   Overcast
3:55 AM 35.6 °F 27.1 °F 30.2 °F 81% 29.34 in 8.0 mi NNW 12.7 mph - 0.01 in   Overcast
4:15 AM 35.6 °F 27.5 °F 30.2 °F 81% 29.35 in 10.0 mi NNW 11.5 mph - 0.01 in   Overcast
4:35 AM 35.6 °F 27.1 °F 30.2 °F 81% 29.36 in 10.0 mi NW 12.7 mph - 0.01 in   Overcast
4:55 AM 35.6 °F 26.6 °F 30.2 °F 81% 29.37 in 10.0 mi NW 13.8 mph - 0.01 in   Overcast
5:15 AM 35.6 °F 27.1 °F 30.2 °F 81% 29.37 in 10.0 mi NW 12.7 mph - N/A   Overcast
5:35 AM 33.8 °F 25.8 °F 30.2 °F 87% 29.38 in 7.0 mi WNW 10.4 mph - 0.01 in   Overcast
5:55 AM 33.8 °F 25.3 °F 30.2 °F 87% 29.39 in 10.0 mi WNW 11.5 mph - 0.01 in   Overcast
6:15 AM 33.8 °F 25.8 °F 30.2 °F 87% 29.39 in 10.0 mi NW 10.4 mph - N/A   Overcast
6:35 AM 33.8 °F 26.4 °F 30.2 °F 87% 29.39 in 9.0 mi WNW 9.2 mph - N/A   Overcast
6:55 AM 33.8 °F 25.8 °F 30.2 °F 87% 29.40 in 7.0 mi NW 10.4 mph - N/A   Overcast
7:15 AM 33.8 °F 25.8 °F 28.4 °F 81% 29.40 in 6.0 mi NW 10.4 mph - N/A   Overcast
7:35 AM 33.8 °F 25.3 °F 30.2 °F 87% 29.40 in 9.0 mi NW 11.5 mph - N/A   Overcast
7:55 AM 33.8 °F 25.3 °F 28.4 °F 81% 29.42 in 10.0 mi WNW 11.5 mph - N/A   Overcast
8:15 AM 33.8 °F 24.8 °F 28.4 °F 81% 29.42 in 10.0 mi NW 12.7 mph - N/A   Overcast
8:35 AM 33.8 °F 25.3 °F 28.4 °F 81% 29.43 in 10.0 mi NW 11.5 mph - N/A   Overcast
8:55 AM 33.8 °F 25.3 °F 28.4 °F 81% 29.43 in 10.0 mi WNW 11.5 mph - N/A   Overcast
9:15 AM 33.8 °F 24.8 °F 28.4 °F 81% 29.43 in 10.0 mi NW 12.7 mph - N/A   Overcast
9:35 AM 33.8 °F 25.3 °F 28.4 °F 81% 29.45 in 10.0 mi WNW 11.5 mph - N/A   Overcast
9:55 AM 32.0 °F 22.5 °F 28.4 °F 87% 29.45 in 10.0 mi NW 12.7 mph - N/A   Overcast
10:15 AM 32.0 °F 22.5 °F 28.4 °F 87% 29.46 in 10.0 mi NW 12.7 mph - N/A   Overcast
10:35 AM 32.0 °F 22.5 °F 28.4 °F 87% 29.47 in 9.0 mi WNW 12.7 mph - N/A   Overcast
10:55 AM 32.0 °F 22.1 °F 26.6 °F 80% 29.48 in 8.0 mi WNW 13.8 mph 18.4 mph N/A   Overcast
11:15 AM 30.2 °F 19.3 °F 26.6 °F 86% 29.49 in 5.0 mi NW 15.0 mph 20.7 mph N/A   Overcast
11:35 AM 30.2 °F 18.1 °F 26.6 °F 86% 29.50 in 10.0 mi WNW 18.4 mph - N/A   Overcast
11:55 AM 30.2 °F 18.1 °F 26.6 °F 86% 29.50 in 10.0 mi WNW 18.4 mph 24.2 mph N/A   Overcast
12:15 PM 30.2 °F 18.1 °F 24.8 °F 80% 29.51 in 10.0 mi WNW 18.4 mph 21.9 mph N/A   Overcast
12:35 PM 28.4 °F 16.2 °F 24.8 °F 86% 29.52 in 10.0 mi NW 17.3 mph - N/A   Overcast
12:55 PM 28.4 °F 17.0 °F 24.8 °F 86% 29.53 in 10.0 mi WNW 15.0 mph - N/A   Overcast
1:15 PM 28.4 °F 15.4 °F 24.8 °F 86% 29.53 in 10.0 mi NW 19.6 mph 23.0 mph N/A   Overcast
1:35 PM 28.4 °F 15.4 °F 23.0 °F 80% 29.55 in 10.0 mi NW 19.6 mph - N/A   Overcast
1:55 PM 28.4 °F 15.4 °F 23.0 °F 80% 29.56 in 10.0 mi NW 19.6 mph 23.0 mph N/A   Overcast
2:15 PM 28.4 °F 15.1 °F 23.0 °F 80% 29.57 in 10.0 mi NW 20.7 mph - N/A   Overcast
2:35 PM 28.4 °F 14.7 °F 23.0 °F 80% 29.58 in 10.0 mi NW 21.9 mph 26.5 mph N/A   Overcast
2:55 PM 28.4 °F 14.4 °F 21.2 °F 74% 29.59 in 10.0 mi NW 23.0 mph 26.5 mph N/A   Overcast
3:15 PM 26.6 °F 13.1 °F 21.2 °F 80% 29.61 in 10.0 mi WNW 19.6 mph 28.8 mph N/A   Overcast
3:35 PM - - - N/A% 29.61 in 10.0 mi NW 26.5 mph 32.2 mph N/A   Overcast
3:55 PM - - - N/A% 29.63 in 10.0 mi NW 26.5 mph 31.1 mph N/A   Overcast
4:15 PM 26.6 °F 11.7 °F 19.4 °F 74% 29.64 in 10.0 mi NW 24.2 mph 36.8 mph N/A   Overcast
4:35 PM 26.6 °F 11.4 °F 19.4 °F 74% 29.66 in 10.0 mi NW 25.3 mph 31.1 mph N/A   Overcast
4:55 PM 26.6 °F 12.0 °F 19.4 °F 74% 29.67 in 10.0 mi WNW 23.0 mph 27.6 mph N/A   Overcast
5:15 PM 26.6 °F 12.0 °F 19.4 °F 74% 29.68 in 10.0 mi NW 23.0 mph 28.8 mph N/A   Overcast
5:35 PM 24.8 °F 9.6 °F 19.4 °F 80% 29.69 in 10.0 mi NW 23.0 mph 28.8 mph N/A   Overcast
5:55 PM 24.8 °F 9.0 °F 19.4 °F 80% 29.71 in 10.0 mi NW 25.3 mph 28.8 mph N/A   Overcast
6:15 PM 24.8 °F 10.7 °F 17.6 °F 74% 29.72 in 10.0 mi NW 19.6 mph 26.5 mph N/A   Overcast
6:35 PM 24.8 °F 10.3 °F 19.4 °F 80% 29.73 in 10.0 mi NW 20.7 mph 25.3 mph N/A   Overcast
6:55 PM 24.8 °F 10.3 °F 17.6 °F 74% 29.74 in 10.0 mi NW 20.7 mph 26.5 mph N/A   Overcast
7:15 PM 24.8 °F 10.3 °F 17.6 °F 74% 29.75 in 10.0 mi WNW 20.7 mph 28.8 mph N/A   Overcast
7:35 PM 24.8 °F 11.1 °F 17.6 °F 74% 29.77 in 10.0 mi WNW 18.4 mph 25.3 mph N/A   Overcast
7:55 PM 24.8 °F 10.7 °F 17.6 °F 74% 29.78 in 10.0 mi NW 19.6 mph 24.2 mph N/A   Overcast
8:15 PM 24.8 °F 11.5 °F 17.6 °F 74% 29.79 in 10.0 mi NW 17.3 mph 26.5 mph N/A   Overcast
8:35 PM 23.0 °F 8.7 °F 17.6 °F 80% 29.80 in 10.0 mi NW 18.4 mph 27.6 mph N/A   Overcast
8:55 PM 23.0 °F 8.0 °F 17.6 °F 80% 29.80 in 10.0 mi NW 20.7 mph 28.8 mph N/A   Overcast
9:15 PM 23.0 °F 7.6 °F 17.6 °F 80% 29.82 in 10.0 mi NW 21.9 mph 26.5 mph N/A   Overcast
9:35 PM 23.0 °F 9.2 °F 17.6 °F 80% 29.82 in 10.0 mi NW 17.3 mph - N/A   Overcast
9:55 PM 23.0 °F 9.2 °F 15.8 °F 74% 29.83 in 10.0 mi NW 17.3 mph - N/A   Overcast
10:15 PM 23.0 °F 9.2 °F 17.6 °F 80% 29.83 in 10.0 mi WNW 17.3 mph 23.0 mph N/A   Overcast
10:35 PM 23.0 °F 8.0 °F 17.6 °F 80% 29.83 in 10.0 mi NW 20.7 mph - N/A   Overcast
10:55 PM 23.0 °F 8.3 °F 17.6 °F 80% 29.84 in 10.0 mi NW 19.6 mph - N/A   Overcast
11:15 PM 23.0 °F 9.6 °F 17.6 °F 80% 29.85 in 10.0 mi WNW 16.1 mph 20.7 mph N/A   Overcast
11:35 PM 21.2 °F 7.3 °F 15.8 °F 80% 29.87 in 10.0 mi WNW 16.1 mph 23.0 mph N/A   Overcast
11:55 PM 21.2 °F 6.4 °F 15.8 °F 80% 29.87 in 10.0 mi NW 18.4 mph 23.0 mph N/A   Overcast